Regional Weather Roundup
Issued by NWS

Home | Current Version | Previous Version | Graphics & Text | Print | Product List | Glossary On
Versions: 1 2 3 4 5 6 7 8 9 10 11 12 13 14 15 16 17 18 19 20 21 22 23 24 25 26 27 28 29 30 31 32 33 34 35 36 37 38 39 40 41 42 43 44 45 46 47 48 49 50
000
ASUS43 KBIS 242310
RWRND

NORTH DAKOTA REGIONAL WEATHER ROUNDUP
NATIONAL WEATHER SERVICE BISMARCK ND
600 PM CDT WED AUG 24 2016

NOTE: "FAIR" INDICATES FEW OR NO CLOUDS BELOW 12,000 FEET WITH NO
SIGNIFICANT WEATHER AND/OR OBSTRUCTIONS TO VISIBILITY.


NDZ001>003-009>011-017-250000-
NORTHWEST NORTH DAKOTA

CITY           SKY/WX    TMP DP  RH WIND       PRES   REMARKS
WILLISTON      CLOUDY    62  50  64 NW20G29   30.05S
MINOT          PTSUNNY   67  49  52 W26G32    29.95R
MINOT AFB      PTSUNNY   67  49  51 W18G25    29.93R
$$

NDZ018>021-031>035-040>046-250000-
SOUTHWEST NORTH DAKOTA

CITY           SKY/WX    TMP DP  RH WIND       PRES   REMARKS
BISMARCK       MOSUNNY   73  46  38 W18G24    30.01S
DICKINSON      PTSUNNY   63  42  46 W24G30    30.08R
GARRISON         N/A     66  49  54 W22G33    29.99S
HETTINGER ARPT MOSUNNY   73  42  32 NW28G33   30.09S
$$

NDZ004>008-012>016-024-026-027-054-250000-
NORTHEAST NORTH DAKOTA

CITY           SKY/WX    TMP DP  RH WIND       PRES   REMARKS
GRAND FORKS    MOSUNNY   74  51  44 W17       29.88S
GRND FRKS AFB  CLOUDY    71  51  49 W13G24    29.90S
DEVILS LAKE    CLOUDY    68  51  54 W18       29.92S
$$

NDZ022-023-025-028>030-036>039-047>053-250000-
SOUTHEAST NORTH DAKOTA

CITY           SKY/WX    TMP DP  RH WIND       PRES   REMARKS
FARGO          PTSUNNY   75  52  44 W16       29.94R
JAMESTOWN      MOSUNNY   70  50  49 W18G25    29.97R
$$





USA.gov is the U.S. government's official web portal to all federal, state and local government web resources and services.